Location: ??
(35.5052°N, 139.7262°E)
Time: 04:54:10
(UTC+00:00)

NOSS 3-4 (C) - Visible Passes

Search period start: 18 October 2021 00:00
Search period end: 28 October 2021 00:00
Orbit: 868 x 1344 km, 63.4° (Epoch: 05 October)

Date Brightness Start Highest point End Pass type
(mag) Time Alt. Az. Time Alt. Az. Time Alt. Az.
21 Oct 6.0 20:17:44 10° N 20:21:13 14° NE 20:24:50 10° ENE visible
24 Oct 6.0 19:53:31 10° N 19:58:04 18° NE 20:02:55 10° E visible
25 Oct 6.2 19:10:06 10° NNE 19:12:33 12° NNE 19:15:05 10° NE visible
26 Oct 5.4 20:13:44 10° NNW 20:20:05 33° NE 20:26:59 10° ESE visible
27 Oct 5.9 19:29:29 10° N 19:34:52 22° NE 19:40:38 10° E visible
